Location: Bronschhofen
(47.4788°N, 9.0353°E)
Time: 19:35:03
(UTC+00:00)

ATLAS CENTAUR R/B - Pass Details

Date: 20 May 2022
Orbit: 443 x 688 km, 64.6° (Epoch: 07 June)

Event Time Altitude Azimuth Distance (km) Brightness Sun altitude
Rises 01:45:53 0° 311° (NW) 3,053 5.2 -15.1°
Reaches altitude 10° 01:48:48 10° 294° (WNW) 2,113 4.2 -14.8°
Maximum altitude 01:52:11 19° 249° (WSW) 1,544 3.1 -14.4°
Enters shadow 01:52:23 19° 246° (WSW) 1,544 3.1 -14.4°
